Regional Weather Roundup
Issued by NWS Upton, NY

Current Version | Previous Version | Text Only | Print | Product List | Glossary Off
Versions: 1 2 3 4 5 6 7 8 9 10 11 12 13 14 15 16 17 18 19 20 21 22 23 24 25 26 27 28 29 30 31 32 33 34 35 36 37 38 39 40 41 42 43 44 45 46 47 48 49 50

000
ASUS41 KOKX 302205
RWROKX

REGIONAL WEATHER ROUNDUP
NATIONAL WEATHER SERVICE NEW YORK NY
600 PM EDT WED JUL 30 2014

NOTE: "FAIR" INDICATES FEW OR NO CLOUDS BELOW 12,000 FEET WITH NO
SIGNIFICANT WEATHER AND/OR OBSTRUCTIONS TO VISIBILITY.

NYZ071-072-176-178-NJZ106-104-302300-
NEW YORK CITY METRO AREA


CITY           SKY/WX    TMP DP  RH WIND       PRES   REMARKS
CENTRAL PARK   PTSUNNY   78  51  38 W5        30.02F
LAGUARDIA APRT PTSUNNY   79  50  36 SW15      29.99F
KENNEDY INTL   MOSUNNY   76  56  49 S17       30.01F
NEWARK/LIBERTY MOSUNNY   79  50  36 SW12G17   29.99F
BRNX BOT. GARD   N/A     79  48  34 W3        30.00S
TETERBORO      SUNNY     80  50  34 SW7       29.98F
$$

NYZ177-179-078>081-302300-
LONG ISLAND NEW YORK

CITY           SKY/WX    TMP DP  RH WIND       PRES   REMARKS
FARMINGDALE    MOSUNNY   76  50  40 SW13      30.01S
ISLIP          MOSUNNY   77  51  40 S8        30.00S
SHIRLEY        SUNNY     76  51  41 S9        30.02S
WESTHAMPTON    PTSUNNY   75  49  39 SW9       30.03S
MONTAUK POINT    N/A     74  57  55 VRB7      30.03S
$$

NYZ052-065-067-302300-
HUDSON VALLEY

CITY           SKY/WX    TMP DP  RH WIND       PRES   REMARKS
WHITE PLAINS   MOSUNNY   76  48  37 W3        30.00S
NEWBURGH       MOSUNNY   75  57  53 W7        30.01F
MONTGOMERY     MOSUNNY   76  53  44 SW8       30.00S
POUGHKEEPSIE   SUNNY     77  51  40 SW8       29.98F
ALBANY         PTSUNNY   74  54  49 S8        29.99R
$$

NJZ001-105-106-008-010-013-015-019>022-104-302300-
NEW JERSEY

CITY           SKY/WX    TMP DP  RH WIND       PRES   REMARKS
NEWARK/LIBERTY MOSUNNY   79  50  36 SW12G17   29.99F
TETERBORO      SUNNY     80  50  34 SW7       29.98F
CALDWELL       MOSUNNY   77  52  41 CALM      30.00F
MORRISTOWN     MOSUNNY   79  50  36 SW7       30.01S
SOMERVILLE     SUNNY     77  53  43 VRB3      29.99F
LINDEN         FAIR      80  50  34 W6        30.01F
SUSSEX         SUNNY     77  55  46 VRB5      30.00F
ANDOVER          N/A     74  54  49 SW6       30.02S
TRENTON        MOSUNNY   77  50  38 NW5       30.00F
MILLVILLE      MOSUNNY   77  53  43 SW7       30.03F
ATLANTIC CITY  SUNNY     77  51  40 W8        30.02S
WRIGHTSTOWN    MOSUNNY   78  53  41 SW10      29.99F
TOMS RIVER     PTSUNNY   81  48  32 SW5       30.01F
BELMAR         SUNNY     75  55  50 S7        30.02S
$$

PAZ047>061-062-071-302300-
EASTERN PENNSYLVANIA

CITY           SKY/WX    TMP DP  RH WIND       PRES   REMARKS
PHILADELPHIA   MOSUNNY   79  52  38 SW10G24   30.02F
ALLENTOWN      SUNNY     76  54  46 W9        30.01F
SCRANTON       PTSUNNY   75  51  43 SW7       30.01S
$$

CTZ002-004>006-009-010-012-RIZ004-006-007-MAZ004-011-015-302300-
SOUTHERN NEW ENGLAND
 IN CT

CITY           SKY/WX    TMP DP  RH WIND       PRES   REMARKS
BRADLEY INTL   MOSUNNY   78  48  34 SW8       29.98S
HARTFORD       MOSUNNY   78  46  32 W10       29.99R
DANBURY        SUNNY     75  49  39 SW5       30.02S
WTRBRY/OXFORD  MOSUNNY   73  52  46 NW5       30.04S
BRIDGEPORT     SUNNY     79  49  34 SW8       30.00S
MERIDEN        MOSUNNY   77  53  43 SW7       30.00S
NEW HAVEN      MOSUNNY   78  51  38 S8        30.00F
CHESTER        FAIR      73  54  49 SW5       30.02S
GROTON         SUNNY     73  60  63 S10       30.00S
WILLIMANTIC    MOSUNNY   77  51  40 VRB3      30.00R

 IN RI

CITY           SKY/WX    TMP DP  RH WIND       PRES   REMARKS
PROVIDENCE     MOSUNNY   75  52  44 SW10      30.00R
BLOCK ISLAND   SUNNY     73  57  56 SW10      30.03R
WESTERLY       SUNNY     75  55  49 SW10      30.02R

 IN MA

CITY           SKY/WX    TMP DP  RH WIND       PRES   REMARKS
BOSTON         MOSUNNY   72  54  53 E10       29.99R
WORCESTER      SUNNY     73  49  42 W8        30.02R
WESTFIELD      SUNNY     78  49  35 W3        29.99S
PROVINCETOWN   MOSUNNY   75  55  50 SW9       30.00R
NANTUCKET      SUNNY     71  59  65 SW8       30.02R
$$

ANZ330-335-338-340-345-350-353-355-302300-
COASTAL MARINE OBSERVATIONS


STATION/POSITION TIME  SKY/WX   TEMP    WIND        PRES    VSBY  WAVE
                                AIR SEA DIR/SP/G                  HT/PER
                 (UTC)          (F)     (DEG/KT/KT) (MB)    (MI)  (FT/S)
NY HARB ENTRANCE NOT AVBL
4S FIRE IS       NOT AVBL
23SW MTP         2200            73 71              1016.2          3/ 8
HUDSON CANYON    2200            73 76  280/  2/  4 1017.1          3/ 7
EXECUTION ROCKS  2200            77 72  180/  4/  4   N/A
WESTERN LI SOUND 2200            77     200/  4/  6   N/A           0
CENTRAL LI SOUND 2100            74 74  250/  8/  8   N/A           0
EASTERN LI SOUND 2100            71 67  180/ 10/ 12   N/A
ROBBINS REEF     2200            74     160/ 19/ 21   N/A
$$


>>>>>>>>>>>>>>>>>>>>>>>>>>>> KEY <<<<<<<<<<<<<<<<<<<<<<<<<<<
>                                                          <
>     SKY/WX - SKY CONDITION/PRESENT WEATHER               <
>     TMP    - TEMPERATURE IN FAHRENHEIT                   <
>     DP     - DEWPOINT IN FAHRENHEIT                      <
>     RH     - RELATIVE HUMIDITY IN PERCENT                <
>     WIND   - DIRECTION AND SPEED IN MPH                  <
>     PRES   - MEAN SEA LEVEL PRESSURE IN INCHES OF HG     <
>     WCI    - WIND CHILL INDEX                            <
>     VSB    - VISIBILITY IN MILES                         <
>     HX     - HEAT INDEX                                  <
>     TC     - TEMPERATURE IN CELSIUS                      <
>     VRB    - VARIABLE WIND DIRECTION                     <
>                                                          <
>>>>>>>>>>>>>>>>>>>>>>>>>>>> KEY <<<<<<<<<<<<<<<<<<<<<<<<<<<




USA.gov is the U.S. government's official web portal to all federal, state and local government web resources and services.